This is the latest recevied weather packets stored in our database for station/object JE7UPL-13. If no packets are shown the sender has not sent any weather packets the latest 10 day(s).
| Time | Temp. | Humidity | Pressure | Rain* | Wind** | Luminosity | Snow |
|---|---|---|---|---|---|---|---|
| 1777714205 | 13.89° C | 34% | 1003.9 hPa | 0 mm | - | - | - |
| 1777713305 | 13.89° C | 36% | 1004 hPa | 0 mm | - | - | - |
| 1777712406 | 14.44° C | 37% | 1003.9 hPa | 0 mm | - | - | - |
| 1777711504 | 14.44° C | 39% | 1003.5 hPa | 0 mm | - | - | - |
| 1777710605 | 15° C | 41% | 1003.6 hPa | 0 mm | - | - | - |
| 1777709705 | 15.56° C | 41% | 1003 hPa | 0 mm | - | - | - |
| 1777708806 | 16.11° C | 38% | 1003 hPa | 0 mm | - | - | - |
| 1777707904 | 16.67° C | 35% | 1002.7 hPa | 0 mm | - | - | - |
| 1777707005 | 16.67° C | 34% | 1002.6 hPa | 0 mm | - | - | - |
| 1777706105 | 16.11° C | 34% | 1002.1 hPa | 0 mm | - | - | - |
| 1777705205 | 16.11° C | 32% | 1002 hPa | 0 mm | - | - | - |
| 1777704305 | 16.67° C | 30% | 1001.6 hPa | 0 mm | - | - | - |
| 1777703405 | 16.67° C | 27% | 1001.5 hPa | 0 mm | - | - | - |
| 1777702504 | 16.67° C | 29% | 1001 hPa | 0 mm | - | - | - |
| 1777701606 | 16.67° C | 33% | 1000.6 hPa | 0 mm | - | - | - |
| 1777700705 | 16.11° C | 40% | 1000.5 hPa | 0 mm | - | - | - |
| 1777699806 | 16.67° C | 43% | 1000.4 hPa | 0 mm | - | - | - |
| 1777698905 | 16.11° C | 46% | 999.9 hPa | 0 mm | - | - | - |
| 1777698005 | 16.11° C | 47% | 999.6 hPa | 0 mm | - | - | - |
| 1777697105 | 16.11° C | 49% | 999.2 hPa | 0 mm | - | - | - |
| 1777696205 | 16.11° C | 52% | 998.9 hPa | 0 mm | - | - | - |
| 1777695305 | 16.11° C | 51% | 998.3 hPa | 0 mm | - | - | - |
| 1777694406 | 16.11° C | 52% | 997.9 hPa | 0 mm | - | - | - |
| 1777693505 | 16.11° C | 55% | 997.2 hPa | 0 mm | - | - | - |
| 1777692605 | 15.56° C | 54% | 996.9 hPa | 0 mm | - | - | - |
* Rain latest hour (hover to see other rain measurements)
** Current wind speed in m/s (hover to see current wind gust speed)